Regional Weather Roundup
Issued by NWS

Home | Current Version | Previous Version | Graphics & Text | Print | Product List | Glossary On
Versions: 1 2 3 4 5 6 7 8 9 10 11 12 13 14 15 16 17 18 19 20 21 22 23 24 25 26 27 28
000
ASUS45 KSLC 170910
RWRUT

UTAH REGIONAL WEATHER ROUNDUP
NATIONAL WEATHER SERVICE SALT LAKE CITY UT
300 AM MDT THU APR 17 2014

UTZ001>011-023>025-171000-

NORTHERN UTAH

CITY           SKY/WX    TMP DP  RH WIND       PRES   REMARKS
HILL AFB       CLEAR     40  14  34 E15       30.03S WCI  32
LOGAN          PTCLDY    33  24  69 CALM      30.04S
OGDEN          CLEAR     40  16  37 S8        30.02F WCI  34
PROVO AIRPORT  CLEAR     37  27  65 CALM      30.04S
SALT LAKE CITY CLEAR     41  19  41 SE9       30.02S
VERNAL         CLEAR     34  20  56 W6        30.02S WCI  29
WENDOVER       PTCLDY    43  18  36 CALM      30.01S
HEBER CITY     CLEAR     25  18  74 SE3       30.07R
WEST JORDAN    CLEAR     37  21  52 CALM      30.04S

$$

UTZ012>022-026-027-171000-

SOUTHERN UTAH

CITY           SKY/WX    TMP DP  RH WIND       PRES   REMARKS
BRYCE CANYON   PTCLDY    24  19  81 W8        30.10S WCI  15
CEDAR CITY     PTCLDY    37  20  50 CALM      30.03R
MILFORD        CLEAR     35  18  49 SW3       30.03R
MOAB/CYNLANDS  CLEAR     44  20  38 CALM      29.97S
PRICE          PTCLDY    37  13  37 N8        30.02F WCI  31
ST GEORGE      SUNNY     57  25  28 S3        29.93S

$$

REGIONAL REPORTS     COLORADO/ARIZONA

CITY           SKY/WX    TMP DP  RH WIND       PRES   REMARKS
CRAIG, CO      CLEAR     23  18  81 CALM      30.05S
GRAND JUNCTION CLEAR     39  21  48 E14       29.99S WCI  31
RIFLE          MOCLDY    34  25  69 CALM      30.03S
MONTROSE       CLEAR     35  25  66 SE8       30.05R WCI  29
CORTEZ         CLEAR     27  20  75 NE9       30.04S WCI  18
PAGE, AZ       NOT AVBL
GRAND CANYON   CLEAR     29  15  56 CALM      30.07S
KINGMAN        CLEAR     56  14  19 CALM      29.89S
FLAGSTAFF      CLEAR     30  15  53 CALM      30.08F

$$

REGIONAL REPORTS    NEVADA/IDAHO/WYOMING

CITY           SKY/WX    TMP DP  RH WIND       PRES   REMARKS
LAS VEGAS, NV  PTCLDY    71  22  15 N8        29.78R
ELY            PTCLDY    32  22  66 S10       30.06F WCI  24
ELKO           CLEAR     37  26  64 E5        30.02F WCI  33
POCATELLO, ID  CLEAR     36  15  42 CALM      30.02S
BURLEY         CLEAR     35  22  58 SW9       30.00S WCI  28
EVANSTON, WY   CLEAR     31  10  41 S5        30.06S WCI  26
ROCK SPRINGS   CLEAR     33  11  39 W6        30.05S WCI  28

$$



USA.gov is the U.S. government's official web portal to all federal, state and local government web resources and services.